Wetbulb
52.58 52.41 52.66 52.68 52.52 52.29 52.10 51.94 51.22 50.92 51.09 51.71 52.40 52.59 51.00 49.74 48.77 44.91 43.08 43.00 39.81 35.60 36.01 39.29 40.40 36.53 35.86 33.66 29.70 34.21 36.70 37.40 40.49 33.51 32.52 35.15 34.37 36.13 35.99 39.01 37.36 37.03 34.72 33.07 33.55 29.31 29.00 47.16 46.01 40.79 45.58 49.28 52.07 51.88
52.42 52.13 52.11 52.10 52.06 51.82 51.68 50.80 49.50 49.60 49.77 50.20 51.15 52.59 51.46 50.18 48.60 47.86 40.72 44.12 43.28 36.65 32.93 37.99 40.34 42.06 41.60 40.02 35.61 34.72 35.36 38.71 41.34 37.45 32.51 38.25 35.91 34.88 35.17 33.39 39.55 36.17 38.08 37.42 38.43 38.82 46.28 48.18 47.43 49.71 49.87 49.90 51.54 49.62
52.87 52.70 52.35 51.87 51.77 51.44 51.06 49.77 49.01 48.82 49.08 49.66 50.66 52.31 51.86 50.51 49.11 47.64 43.72 42.65 40.72 36.44 34.12 35.07 37.77 41.21 42.72 42.95 43.53 35.26 37.31 40.31 39.72 41.21 35.70 39.79 35.79 36.39 33.63 33.95 35.28 38.56 39.85 40.84 41.71 42.93 42.71 46.84 48.14 50.45 51.80 49.60 51.01 50.68
51.98 52.16 52.09 51.69 51.20 50.57 49.65 49.31 48.68 48.27 48.47 48.96 49.96 52.31 51.59 50.66 49.13 48.55 44.28 41.78 40.23 33.77 31.41 35.45 43.52 41.54 45.01 43.67 42.97 43.40 41.48 40.85 39.24 38.05 35.16 37.95 35.94 39.18 35.73 35.89 35.17 37.00 38.19 37.45 41.20 41.63 43.57 46.75 45.90 49.78 49.53 49.87 50.44 50.69
51.26 51.62 51.56 51.23 50.54 49.64 49.32 48.48 48.07 47.93 48.29 48.83 50.32 52.36 51.33 50.27 48.74 46.85 45.30 43.21 42.28 34.98 34.61 35.97 40.51 41.22 42.53 41.94 42.43 42.21 41.59 40.69 36.74 34.46 33.04 33.89 39.90 38.30 39.76 35.87 33.80 38.73 36.44 35.73 37.25 41.60 41.00 42.40 44.01 49.02 48.66 47.04 47.59 47.56
50.74 50.92 50.79 50.05 49.72 49.24 49.12 48.70 47.96 48.37 48.93 49.53 50.77 51.90 50.03 48.66 47.00 42.48 36.36 43.02 44.57 42.92 37.28 33.04 38.06 40.61 41.88 45.62 42.83 41.34 41.95 39.23 36.55 34.50 33.33 34.56 42.08 38.49 35.26 32.76 36.25 40.34 41.34 41.47 39.41 42.38 44.00 43.85 47.52 49.64 48.41 48.23 48.26 47.92
50.45 50.17 49.45 49.40 49.34 49.42 49.51 49.12 48.43 48.79 50.04 50.73 51.19 49.74 48.74 48.31 42.92 38.62 32.76 42.16 45.27 44.56 39.59 35.89 32.89 38.96 41.58 43.63 43.73 42.67 41.96 39.45 37.75 34.44 32.53 32.41 33.60 38.09 35.92 32.59 37.23 40.75 41.64 42.11 42.62 43.29 42.43 42.03 41.55 48.42 48.54 48.82 48.31 47.44
49.40 49.35 49.22 48.98 49.07 49.10 48.87 48.93 49.65 50.23 50.74 50.94 49.22 48.39 47.49 47.41 45.67 40.19 40.25 45.96 45.69 38.40 36.78 35.68 32.18 35.53 40.76 37.21 39.21 41.26 39.33 38.35 37.47 35.21 33.90 31.18 32.63 36.35 31.03 36.90 39.77 40.76 41.99 41.84 41.41 42.01 41.42 42.02 43.75 47.36 47.95 47.46 45.90 44.83
48.98 48.81 48.70 48.86 48.71 47.84 47.72 48.45 49.44 49.68 50.36 48.24 47.06 46.52 43.17 41.54 36.86 38.88 49.50 47.96 44.81 39.75 36.90 37.57 32.12 28.51 39.34 35.35 35.51 39.69 38.43 34.75 36.49 32.58 32.07 31.40 30.75 31.08 35.41 37.03 38.87 39.64 39.72 40.72 41.50 41.04 40.69 39.72 39.84 41.80 46.72 46.24 43.24 42.57
48.45 48.41 47.98 47.78 47.46 47.52 48.13 48.33 49.06 50.03 47.82 46.41 41.28 38.79 36.56 41.66 46.68 48.25 45.25 40.55 37.91 38.63 40.74 34.77 35.01 33.22 35.20 33.32 30.98 34.40 35.69 33.64 31.03 31.93 33.39 31.43 32.91 38.73 39.89 40.74 40.37 39.82 39.96 40.60 39.05 38.52 38.66 38.23 38.50 38.71 39.64 41.03 41.23 40.77
47.82 47.53 47.40 47.49 47.43 47.46 48.14 48.41 49.44 46.51 45.02 39.18 38.07 37.72 41.25 46.00 44.63 43.60 39.85 37.63 36.54 36.59 38.62 36.14 35.76 32.82 36.77 31.23 30.57 34.17 31.29 33.75 30.13 30.87 30.58 30.56 29.34 37.29 40.86 39.80 40.33 40.78 40.55 40.27 40.50 40.49 40.42 39.89 38.42 38.00 37.93 38.22 39.10 39.29
46.73 46.50 46.54 46.73 46.83 47.34 47.80 49.18 46.78 42.69 41.85 40.42 38.90 40.24 40.30 41.42 41.70 38.31 36.34 37.10 37.95 34.78 36.89 38.01 38.54 36.72 38.93 37.25 34.35 34.49 32.20 34.66 30.48 34.54 30.18 28.11 31.30 37.34 40.74 39.45 39.99 40.77 41.18 40.35 40.23 38.89 38.87 39.40 38.80 38.21 37.55 37.22 37.24 37.64
45.50 45.04 45.23 45.64 46.37 47.48 48.87 47.84 46.13 44.08 43.86 41.60 39.64 38.31 36.18 33.26 32.25 31.73 27.59 31.58 35.48 37.42 41.06 41.91 38.58 40.32 39.16 38.53 34.89 34.04 32.12 30.91 36.81 31.86 30.40 30.85 34.17 38.50 40.00 40.25 40.16 40.97 40.68 40.38 39.96 40.32 39.53 38.19 38.63 36.96 36.57 37.33 36.89 36.39
45.21 44.81 45.57 45.84 46.77 48.59 48.63 46.75 45.57 44.14 40.12 37.10 34.68 28.28 30.36 29.31 29.63 29.82 32.35 32.84 37.38 38.04 38.91 38.31 37.52 36.47 35.94 35.36 34.80 32.13 34.66 35.68 30.28 28.00 29.72 32.46 36.71 37.39 39.26 39.44 37.49 37.20 38.14 38.82 39.21 39.23 38.83 38.67 37.95 37.67 36.91 36.86 36.03 34.31
45.05 44.93 45.76 46.59 47.78 48.79 47.12 45.99 45.38 40.95 38.48 34.25 34.60 29.13 29.89 33.13 34.24 35.41 37.43 36.60 39.74 39.61 38.90 37.18 36.78 36.38 36.09 34.89 34.49 32.99 30.98 30.53 30.64 27.90 30.64 33.12 36.47 38.55 37.37 36.89 36.55 37.19 37.84 38.62 39.42 38.06 37.49 37.22 36.00 35.02 35.03 34.78 33.71 32.63
45.32 45.18 45.15 48.12 48.69 47.46 46.29 45.10 43.65 42.37 41.12 38.18 35.83 30.91 32.58 31.87 32.26 32.91 36.43 36.73 40.16 40.74 41.28 39.71 37.75 34.25 33.50 34.28 32.74 32.43 30.01 25.99 28.87 33.08 33.79 35.71 35.57 35.88 36.32 37.17 38.01 38.56 38.43 38.41 38.90 37.50 36.73 35.69 34.06 32.84 32.94 32.58 32.36 32.14
45.03 44.23 47.12 48.17 47.38 46.68 45.80 42.35 41.54 38.91 37.11 35.74 31.33 33.43 32.27 31.68 31.39 32.08 33.67 36.73 40.23 39.51 35.69 36.26 34.98 35.07 34.83 29.32 30.61 32.22 28.56 30.95 33.90 34.05 34.52 36.76 35.67 34.56 34.60 35.36 36.59 36.87 36.49 37.10 37.16 36.56 35.57 34.79 34.27 32.84 30.89 31.67 32.51 32.97
42.73 45.60 47.68 47.72 45.70 44.13 42.43 41.98 40.05 38.15 33.29 33.61 30.52 31.58 32.39 33.70 32.74 33.41 34.82 38.38 39.54 37.69 37.78 36.00 37.63 31.69 30.55 29.29 28.47 32.34 35.31 34.56 34.33 34.66 34.25 34.55 34.22 34.82 36.07 35.03 36.25 36.31 35.76 35.48 35.93 35.25 34.26 33.54 32.35 31.28 31.29 32.25 32.29 32.05
44.55 45.25 47.47 46.40 43.92 41.47 36.12 39.04 40.77 34.73 36.00 33.36 33.33 33.51 33.64 33.96 34.62 35.73 35.56 38.67 40.66 40.42 39.31 37.37 36.30 31.03 31.84 34.89 36.23 37.08 36.22 35.50 33.82 33.37 33.27 34.39 35.18 35.76 36.16 36.30 36.18 35.09 34.66 33.86 33.25 33.31 33.23 33.40 32.22 31.41 31.65 31.98 29.99 30.41
45.07 46.04 46.89 45.83 45.14 40.95 37.70 37.83 42.56 35.58 32.23 32.41 33.49 32.73 33.18 33.61 35.15 35.51 35.88 39.61 40.53 39.12 38.58 37.32 34.73 37.56 38.20 40.18 41.38 40.47 38.42 36.85 36.01 33.42 32.46 33.31 35.04 36.26 36.21 36.03 34.92 34.41 34.27 33.32 32.63 33.00 31.87 30.84 31.32 30.95 30.80 30.44 29.84 29.54
44.30 45.76 46.23 44.14 41.34 40.57 38.67 38.19 37.55 36.41 33.19 32.22 34.34 33.64 34.10 34.04 33.84 33.93 34.81 40.20 37.80 37.47 37.38 38.54 39.69 40.52 41.96 43.56 43.52 43.64 40.38 39.47 38.08 37.26 35.74 32.85 34.62 35.96 35.63 35.08 35.24 35.26 33.50 32.09 31.89 31.69 32.31 31.29 30.48 30.28 29.97 29.45 29.72 30.33
43.44 45.38 41.80 41.62 38.31 38.71 37.55 38.77 36.23 38.00 37.21 35.26 33.36 33.91 31.64 30.87 31.69 33.36 37.44 36.39 35.01 36.11 37.90 38.80 38.74 39.89 40.63 41.96 43.48 43.65 43.33 41.41 38.90 37.31 36.58 36.81 34.88 34.53 34.46 35.17 35.28 33.81 33.27 33.11 33.19 32.66 32.17 31.54 31.40 30.93 30.14 29.82 32.55 33.68
44.67 43.61 40.39 39.27 35.95 34.96 33.44 38.49 34.21 32.57 30.71 30.63 32.79 32.18 31.12 31.10 33.69 36.76 33.47 34.69 36.14 38.27 38.47 38.23 39.53 40.61 40.54 42.49 43.80 43.27 43.45 41.35 39.51 37.36 36.85 37.40 36.84 36.90 36.25 36.23 36.95 35.49 33.90 33.93 33.92 33.10 32.38 31.21 31.46 31.89 31.85 32.10 33.59 33.41
43.83 38.76 34.66 34.82 34.61 31.81 35.76 33.60 32.46 31.36 31.87 30.65 29.84 29.81 32.49 35.96 39.35 37.34 32.32 33.46 36.75 37.86 38.22 39.21 40.07 38.96 39.87 41.61 40.73 42.12 41.61 41.49 39.34 38.37 37.52 37.19 36.04 35.30 37.36 37.67 37.42 37.41 37.29 35.65 34.34 33.32 32.70 32.30 32.25 32.53 33.26 32.82 32.40 31.67
32.37 32.92 33.77 30.89 34.60 30.51 30.65 30.21 30.39 29.89 29.55 30.04 30.15 30.47 32.07 38.49 36.64 34.54 32.13 33.67 35.58 36.99 37.70 38.43 38.35 39.12 39.06 39.15 40.41 40.44 41.49 41.63 40.05 38.64 38.25 38.67 37.52 36.70 36.10 36.64 37.33 37.88 37.49 35.15 34.15 34.07 33.07 32.90 32.92 33.31 34.06 32.68 31.23 30.33
28.22 33.24 31.11 31.83 32.16 30.91 29.56 28.63 29.47 29.92 30.32 30.58 31.02 33.10 35.14 34.43 31.81 31.23 32.22 35.00 36.16 37.26 38.09 38.22 37.64 37.14 37.30 38.50 38.91 40.36 41.35 42.05 41.56 39.87 39.72 39.85 40.07 39.05 38.29 37.50 37.07 37.17 38.90 39.32 36.12 34.93 33.56 34.01 34.20 34.80 34.33 32.88 31.11 30.95
24.93 29.44 31.18 35.24 33.92 32.12 30.58 32.34 34.91 33.91 30.28 29.22 30.41 31.34 33.23 30.86 30.76 33.19 35.86 37.36 38.26 39.09 40.10 40.16 40.26 39.84 39.69 39.64 43.67 43.69 42.73 43.69 44.30 42.81 43.48 42.17 41.73 42.24 42.87 41.75 40.54 41.50 40.78 39.92 38.29 36.59 34.79 34.61 35.09 36.44 35.33 33.93 33.20 32.55
30.62 31.07 29.89 31.27 30.65 31.95 31.25 32.76 32.66 30.99 32.36 33.21 32.24 31.74 32.07 33.42 31.50 36.04 37.20 39.01 39.98 42.99 41.89 40.03 40.50 41.36 41.69 42.99 43.84 43.07 42.57 43.28 43.56 43.20 43.42 42.85 42.96 44.62 46.20 45.65 45.50 34.19 41.19 40.81 39.44 38.45 36.98 36.60 37.36 38.35 35.50 34.18 33.90 34.61
30.80 32.05 31.57 29.96 31.26 31.75 32.60 33.12 33.07 35.14 37.31 33.14 31.56 33.21 37.10 40.75 38.99 37.06 38.26 38.65 39.55 42.88 40.60 38.80 38.44 40.32 41.88 41.74 41.97 43.96 45.04 44.45 43.55 41.86 41.57 40.91 41.79 41.60 42.30 43.85 40.96 41.66 41.35 39.21 33.56 36.84 38.72 39.00 40.15 40.07 37.45 36.26 35.93 35.73
30.39 32.52 30.34 32.12 32.09 31.33 34.06 36.24 36.13 38.72 40.58 39.35 38.05 38.23 38.93 40.46 40.02 39.49 37.11 37.49 38.88 41.12 41.14 41.66 40.52 42.41 40.69 40.73 39.35 38.87 38.91 41.00 42.61 42.61 40.75 40.42 41.02 39.74 39.72 40.24 41.36 42.49 41.18 39.99 38.81 36.70 32.88 37.18 37.39 39.52 37.36 36.81 36.21 35.94
32.88 32.10 31.39 32.82 32.56 34.88 36.76 39.08 40.22 41.61 41.79 40.95 39.46 37.50 37.51 39.09 39.53 39.07 39.43 39.13 38.28 40.82 40.94 39.12 38.85 39.25 40.14 39.54 39.44 38.68 37.50 37.94 38.48 38.81 38.55 37.67 36.80 37.15 38.75 38.80 39.44 40.49 41.55 40.16 38.97 38.28 37.66 38.64 39.57 39.47 38.51 37.06 36.92 36.18
31.31 31.62 31.09 30.00 32.23 36.42 38.85 37.24 37.25 37.21 39.10 38.92 35.68 36.84 36.81 35.90 33.90 35.75 37.89 39.48 40.14 39.50 36.74 39.13 38.93 38.23 38.82 37.68 36.97 36.86 35.13 36.24 35.23 34.91 33.63 32.58 32.22 33.12 33.88 35.06 36.31 37.64 39.37 39.88 40.67 40.09 39.30 39.95 40.32 40.17 40.48 39.22 38.15 37.43
31.18 32.06 33.64 34.39 34.10 34.60 36.63 36.59 35.94 35.14 36.38 35.45 33.21 35.38 34.54 34.26 32.48 33.27 36.26 36.31 38.34 38.66 37.62 37.27 37.92 37.84 37.32 36.47 35.29 34.17 33.55 33.34 32.04 30.80 30.90 29.65 28.64 29.51 31.11 31.93 32.80 34.00 35.54 36.78 38.06 39.18 40.33 40.71 40.29 41.12 41.55 40.46 39.85 39.20
MSLP
1024.88 1024.77 1024.68 1024.46 1024.22 1024.04 1023.86 1023.71 1023.47 1023.28 1022.99 1022.73 1022.49 1022.30 1022.33 1022.33 1022.26 1022.34 1022.16 1022.21 1022.44 1021.91 1019.13 1017.93 1017.36 1016.98 1016.75 1016.68 1016.87 1015.14 1014.06 1013.28 1012.91 1012.81 1012.82 1012.23 1011.42 1010.94 1010.19 1009.42 1009.18 1008.90 1008.85 1008.50 1007.74 1006.87 1006.64 1005.53 1003.92 1004.36 1005.64 1004.86 1004.54 1004.98
1024.18 1023.99 1023.90 1023.83 1023.67 1023.60 1023.41 1023.26 1023.09 1022.87 1022.57 1022.27 1022.05 1021.81 1021.88 1021.97 1022.05 1022.05 1022.17 1021.87 1022.02 1022.12 1019.02 1017.41 1016.38 1015.53 1015.39 1015.36 1015.97 1015.84 1015.33 1014.77 1014.11 1013.85 1013.78 1012.99 1012.30 1012.07 1011.46 1010.45 1009.30 1009.32 1009.83 1009.00 1008.42 1008.10 1007.50 1006.88 1006.59 1005.84 1005.32 1005.15 1005.02 1005.54
1023.47 1023.26 1023.07 1023.09 1023.09 1023.07 1023.06 1022.96 1022.78 1022.50 1022.24 1021.98 1021.63 1021.34 1021.35 1021.46 1021.59 1021.78 1021.78 1021.76 1022.00 1021.37 1018.58 1017.07 1015.06 1014.07 1014.13 1014.30 1014.47 1015.48 1014.82 1014.46 1014.47 1014.36 1014.42 1013.76 1013.19 1013.22 1012.47 1012.18 1011.62 1010.78 1010.45 1009.60 1008.77 1008.52 1008.01 1007.70 1007.17 1006.14 1005.36 1005.56 1005.66 1006.22
1022.47 1022.54 1022.44 1022.24 1022.43 1022.60 1022.63 1022.51 1022.41 1022.13 1021.82 1021.57 1021.34 1020.91 1020.94 1021.09 1021.17 1021.16 1021.36 1021.53 1021.85 1021.73 1020.40 1016.19 1014.28 1013.79 1013.07 1013.11 1013.64 1013.77 1014.16 1014.41 1014.63 1014.67 1014.75 1014.51 1014.03 1013.85 1013.24 1013.23 1012.91 1012.64 1011.74 1010.92 1009.79 1009.02 1008.21 1008.05 1008.03 1007.26 1006.76 1006.57 1006.81 1007.51
1021.65 1021.56 1021.74 1021.66 1021.80 1022.03 1022.10 1022.06 1022.01 1021.78 1021.43 1021.13 1020.86 1020.44 1020.50 1020.67 1020.82 1020.76 1020.55 1020.56 1020.86 1021.37 1020.11 1016.97 1014.83 1013.34 1012.86 1012.99 1013.10 1013.46 1014.11 1014.61 1014.96 1015.17 1015.27 1015.07 1014.49 1014.19 1013.67 1013.85 1013.73 1013.27 1012.81 1012.29 1011.31 1011.01 1010.61 1009.58 1009.02 1008.16 1007.51 1008.25 1008.06 1008.17
1020.86 1020.84 1020.94 1021.07 1021.22 1021.41 1021.50 1021.44 1021.42 1021.26 1020.96 1020.54 1020.37 1020.11 1020.28 1020.46 1020.52 1020.61 1020.32 1020.33 1020.17 1020.62 1020.20 1018.16 1015.24 1013.71 1012.97 1012.55 1012.76 1013.28 1013.88 1014.58 1014.94 1015.25 1015.51 1015.22 1014.74 1014.65 1014.22 1014.27 1014.45 1013.81 1013.34 1012.93 1012.48 1011.77 1011.16 1010.51 1009.67 1009.13 1008.50 1008.84 1009.40 1009.50
1020.29 1020.44 1020.35 1020.41 1020.54 1020.64 1020.89 1020.98 1020.83 1020.57 1020.44 1020.09 1019.92 1019.95 1020.14 1020.27 1020.59 1020.41 1020.15 1020.12 1019.94 1020.32 1019.91 1018.36 1016.34 1014.01 1013.08 1012.75 1012.99 1013.60 1013.85 1014.23 1014.61 1015.21 1015.49 1015.43 1015.17 1014.91 1014.64 1014.60 1014.40 1013.96 1013.57 1013.06 1012.76 1011.95 1011.62 1011.32 1010.64 1009.90 1009.63 1009.69 1010.51 1010.81
1019.88 1020.06 1019.98 1020.00 1020.07 1020.19 1020.02 1020.36 1020.43 1020.12 1019.94 1019.75 1019.79 1019.85 1019.80 1020.04 1020.01 1019.67 1018.74 1018.91 1019.74 1019.94 1019.84 1018.94 1016.72 1015.02 1013.39 1013.30 1013.27 1013.41 1013.75 1014.19 1014.66 1015.07 1015.43 1015.60 1015.50 1015.20 1015.06 1014.88 1014.41 1014.11 1013.80 1013.44 1013.17 1012.66 1012.65 1012.20 1011.27 1011.03 1010.46 1010.73 1011.51 1011.84
1019.53 1019.64 1019.56 1019.51 1019.64 1019.75 1019.68 1019.58 1019.81 1019.75 1019.55 1019.56 1019.55 1019.59 1019.73 1019.95 1019.73 1018.73 1018.12 1018.40 1019.23 1019.69 1019.14 1018.40 1017.35 1015.94 1013.90 1013.72 1013.56 1013.59 1013.74 1014.34 1014.79 1015.18 1015.42 1015.70 1015.41 1015.13 1015.17 1015.08 1014.82 1014.53 1014.20 1014.08 1013.87 1013.68 1013.22 1012.83 1012.60 1012.08 1011.84 1012.18 1012.59 1012.95
1019.02 1019.15 1019.10 1019.26 1019.07 1019.47 1019.30 1019.20 1019.30 1019.21 1019.44 1019.47 1019.82 1019.76 1019.12 1018.60 1018.15 1018.37 1018.27 1018.91 1019.26 1018.72 1018.31 1017.72 1016.77 1016.03 1014.97 1014.49 1013.93 1014.04 1013.99 1014.21 1014.71 1015.24 1015.27 1015.40 1015.02 1014.79 1014.99 1015.17 1015.13 1015.07 1014.75 1014.32 1014.26 1014.39 1014.48 1014.34 1014.20 1013.97 1013.66 1013.54 1013.60 1013.93
1018.60 1018.58 1018.78 1018.81 1018.82 1018.94 1018.80 1018.76 1018.68 1018.98 1019.20 1019.73 1019.64 1019.18 1018.45 1017.82 1017.73 1017.98 1017.91 1018.12 1018.02 1017.77 1016.97 1016.18 1015.87 1015.63 1014.59 1014.68 1014.26 1014.01 1014.01 1014.09 1014.55 1014.99 1015.28 1015.29 1014.94 1014.64 1014.88 1015.32 1015.57 1015.52 1015.42 1015.42 1015.22 1015.14 1015.14 1015.14 1015.40 1015.48 1015.55 1015.46 1015.47 1015.75
1018.09 1018.21 1018.36 1018.31 1018.37 1018.43 1018.30 1018.40 1018.60 1018.87 1019.00 1019.21 1019.36 1018.92 1018.69 1017.84 1017.60 1017.92 1017.34 1017.12 1016.80 1016.11 1015.40 1015.14 1014.67 1014.74 1014.11 1013.96 1014.14 1013.68 1013.68 1013.83 1014.19 1014.51 1015.03 1015.12 1014.58 1014.53 1014.87 1015.35 1015.71 1015.80 1015.81 1016.08 1016.11 1016.15 1016.33 1016.53 1016.74 1016.60 1016.85 1016.99 1017.20 1017.24
1017.74 1017.81 1017.92 1017.80 1017.80 1017.82 1017.91 1018.21 1018.40 1018.48 1018.79 1019.06 1019.28 1019.06 1018.68 1018.02 1017.89 1017.42 1016.63 1016.00 1015.27 1014.51 1014.01 1013.90 1014.11 1013.83 1013.73 1013.77 1013.69 1013.54 1013.47 1013.76 1013.83 1014.46 1014.63 1014.34 1014.46 1014.71 1015.07 1015.55 1015.91 1016.09 1016.24 1016.45 1016.78 1016.89 1017.18 1017.57 1017.67 1017.76 1018.00 1018.23 1018.28 1018.50
1017.28 1017.47 1017.43 1017.22 1017.11 1017.29 1017.65 1018.02 1018.35 1018.53 1018.74 1018.99 1018.83 1018.85 1018.33 1017.53 1016.72 1015.81 1015.19 1014.73 1014.03 1013.78 1013.80 1013.74 1013.78 1013.69 1013.63 1013.58 1013.28 1013.35 1013.51 1013.64 1014.09 1014.60 1014.22 1014.05 1014.33 1014.85 1015.35 1015.90 1016.23 1016.51 1016.62 1016.58 1016.97 1017.29 1017.54 1018.05 1018.54 1018.79 1019.37 1019.20 1019.59 1020.09
1016.61 1016.91 1016.87 1016.77 1016.74 1016.95 1017.49 1017.98 1018.08 1018.49 1018.79 1018.72 1018.24 1017.57 1016.83 1015.97 1015.34 1014.98 1014.61 1014.24 1013.59 1013.50 1013.65 1013.75 1013.78 1013.79 1013.51 1013.56 1013.20 1013.35 1013.68 1013.68 1013.64 1013.71 1013.48 1013.60 1014.28 1014.85 1015.44 1016.07 1016.46 1016.72 1016.89 1016.85 1017.14 1017.60 1018.09 1018.70 1019.34 1019.93 1020.22 1020.32 1020.59 1020.77
1016.07 1016.45 1016.25 1016.00 1016.15 1016.85 1017.23 1017.74 1018.21 1018.21 1018.13 1017.99 1017.42 1016.75 1016.13 1016.05 1015.25 1014.98 1014.41 1013.86 1013.35 1013.38 1013.50 1013.64 1013.81 1013.92 1013.52 1013.22 1013.26 1013.10 1013.34 1013.41 1013.16 1013.07 1013.24 1013.67 1014.46 1015.02 1015.46 1015.92 1016.31 1016.61 1016.93 1017.21 1017.48 1017.93 1018.39 1018.88 1019.47 1020.12 1020.62 1021.03 1021.38 1021.80
1015.74 1015.35 1015.08 1015.64 1015.98 1016.58 1017.38 1017.70 1017.91 1017.67 1017.41 1017.04 1016.41 1015.93 1015.92 1015.77 1015.43 1014.88 1014.40 1013.66 1013.30 1013.60 1014.04 1014.00 1014.26 1014.08 1013.78 1013.30 1013.19 1012.87 1012.96 1012.86 1012.88 1013.12 1013.49 1013.70 1014.30 1014.92 1015.52 1015.91 1016.30 1016.72 1017.13 1017.52 1017.95 1018.50 1018.92 1019.40 1019.85 1020.30 1020.76 1021.31 1021.60 1021.94
1015.15 1014.65 1014.89 1015.53 1015.92 1016.70 1017.28 1017.45 1017.28 1016.85 1016.52 1016.10 1016.14 1015.38 1015.28 1014.95 1014.63 1014.23 1013.83 1013.41 1013.54 1013.57 1013.66 1013.43 1013.53 1013.84 1013.56 1012.97 1012.70 1012.23 1012.39 1012.74 1013.05 1013.31 1013.66 1014.10 1014.68 1015.12 1015.47 1015.96 1016.38 1016.88 1017.37 1017.92 1018.42 1018.94 1019.48 1019.97 1020.47 1021.04 1021.49 1021.84 1022.11 1022.50
1014.50 1014.52 1014.78 1015.41 1015.65 1016.04 1016.77 1016.81 1016.48 1015.92 1015.24 1015.19 1015.01 1014.79 1014.63 1014.18 1013.56 1013.12 1012.93 1012.88 1012.83 1012.95 1013.13 1013.10 1013.27 1013.18 1012.73 1012.11 1011.96 1011.90 1012.23 1012.64 1013.17 1013.58 1013.98 1014.25 1014.66 1015.20 1015.61 1016.07 1016.60 1017.21 1017.73 1018.32 1018.91 1019.37 1019.85 1020.29 1020.74 1021.31 1021.76 1022.17 1022.57 1023.03
1014.40 1014.40 1014.60 1015.12 1015.37 1015.41 1015.75 1015.76 1015.58 1015.52 1015.23 1014.52 1014.40 1014.13 1013.91 1013.25 1012.53 1012.27 1012.22 1012.37 1012.50 1012.65 1012.91 1012.84 1012.41 1011.61 1011.33 1011.01 1011.01 1011.15 1011.49 1012.07 1012.64 1013.48 1014.39 1014.79 1014.83 1015.27 1015.74 1016.20 1016.78 1017.35 1018.02 1018.67 1019.22 1019.68 1020.32 1020.95 1021.35 1021.71 1022.12 1022.51 1022.84 1023.16
1014.24 1013.85 1014.51 1015.16 1015.43 1015.44 1015.37 1015.07 1014.78 1014.67 1014.41 1014.25 1013.47 1013.36 1012.93 1012.49 1012.19 1011.96 1011.89 1011.80 1012.22 1012.20 1012.04 1011.60 1011.09 1010.61 1010.42 1010.34 1010.44 1010.69 1011.12 1011.48 1011.84 1012.20 1013.14 1014.50 1014.92 1015.24 1015.78 1016.30 1016.80 1017.38 1017.99 1018.69 1019.25 1019.80 1020.21 1020.63 1021.20 1021.71 1022.21 1022.65 1022.91 1023.13
1013.35 1013.55 1014.52 1015.27 1015.24 1015.10 1015.05 1014.84 1014.60 1014.21 1014.11 1013.43 1013.17 1012.58 1012.35 1012.00 1011.60 1011.28 1011.08 1011.47 1011.31 1010.83 1010.49 1010.30 1010.15 1010.02 1010.11 1010.08 1010.05 1010.37 1010.73 1011.35 1011.81 1012.35 1013.10 1013.79 1014.75 1015.45 1015.92 1016.21 1016.83 1017.45 1017.92 1018.34 1018.81 1019.36 1019.93 1020.42 1020.92 1021.49 1021.97 1022.39 1022.72 1022.94
1012.92 1013.53 1014.17 1014.69 1014.75 1014.74 1014.65 1014.43 1014.43 1013.86 1013.64 1012.88 1012.37 1012.08 1011.61 1011.29 1010.75 1010.65 1010.65 1010.28 1009.93 1009.33 1009.23 1009.44 1009.42 1009.38 1009.55 1009.68 1009.86 1010.22 1010.71 1011.17 1011.73 1012.26 1012.81 1013.36 1014.11 1014.74 1015.39 1015.92 1016.24 1016.88 1017.60 1018.06 1018.48 1019.08 1019.63 1020.12 1020.71 1021.22 1021.73 1022.24 1022.60 1022.86
1012.85 1013.38 1013.74 1013.89 1014.07 1014.00 1013.97 1013.86 1013.71 1013.34 1012.76 1012.43 1011.94 1011.30 1010.66 1010.21 1010.27 1010.34 1010.22 1009.68 1009.08 1008.90 1009.02 1009.04 1009.24 1009.58 1009.71 1009.87 1010.06 1010.35 1010.60 1011.01 1011.57 1012.16 1012.55 1013.21 1014.09 1014.66 1014.93 1015.37 1015.87 1016.19 1016.58 1017.19 1018.05 1018.69 1019.27 1019.84 1020.32 1020.87 1021.37 1021.84 1022.27 1022.59
1013.19 1013.35 1013.27 1013.20 1013.40 1013.59 1013.29 1012.87 1012.69 1012.53 1012.04 1011.61 1011.28 1010.67 1009.94 1009.60 1009.97 1009.80 1009.51 1008.97 1008.73 1008.75 1008.76 1008.96 1009.19 1009.28 1009.65 1009.90 1010.17 1010.40 1010.51 1010.71 1011.46 1012.16 1012.59 1012.81 1013.47 1014.29 1014.96 1015.27 1015.52 1015.81 1016.30 1016.97 1017.68 1018.12 1018.74 1019.29 1019.80 1020.33 1020.81 1021.30 1021.80 1022.25
1012.51 1012.51 1012.51 1012.13 1012.32 1012.50 1012.28 1011.81 1011.52 1011.27 1011.07 1010.87 1010.40 1009.60 1009.39 1009.35 1009.51 1009.18 1008.75 1008.29 1008.32 1008.45 1008.58 1008.71 1009.05 1009.46 1009.69 1009.65 1009.91 1010.39 1010.50 1010.72 1011.16 1011.72 1012.33 1012.62 1012.97 1013.41 1014.17 1014.75 1015.11 1015.30 1015.41 1015.57 1016.38 1017.05 1017.79 1018.39 1019.00 1019.63 1020.09 1020.60 1021.13 1021.66
1011.97 1011.75 1011.76 1011.46 1011.39 1011.54 1011.37 1010.80 1010.56 1010.49 1010.24 1010.02 1009.48 1009.15 1009.02 1009.06 1008.88 1008.44 1008.12 1008.05 1008.04 1007.89 1007.98 1008.27 1008.41 1008.79 1009.14 1009.44 1009.60 1009.77 1010.08 1010.43 1010.69 1010.98 1011.30 1012.05 1012.50 1012.70 1013.07 1013.48 1013.82 1013.67 1013.98 1014.55 1015.19 1015.71 1016.54 1017.37 1018.06 1018.68 1019.03 1019.67 1020.22 1020.73
1011.14 1011.04 1011.07 1011.14 1011.25 1010.97 1010.68 1010.21 1009.89 1009.66 1009.28 1008.88 1008.90 1008.62 1008.48 1008.52 1008.71 1008.40 1008.14 1007.85 1007.76 1007.51 1008.08 1008.45 1008.51 1008.59 1008.95 1009.14 1009.56 1009.93 1010.41 1010.68 1011.01 1011.40 1011.85 1012.40 1012.65 1012.69 1012.66 1012.74 1012.88 1013.03 1013.35 1013.94 1014.63 1015.26 1015.83 1016.40 1017.09 1017.68 1018.24 1018.71 1019.32 1019.86
1010.91 1010.73 1010.76 1010.75 1010.62 1010.31 1009.94 1009.70 1009.37 1008.79 1008.29 1008.44 1008.49 1008.19 1008.17 1008.42 1008.79 1008.74 1008.27 1008.06 1007.80 1007.83 1008.44 1008.84 1009.17 1009.08 1009.31 1009.59 1009.91 1010.16 1010.43 1010.75 1011.14 1011.70 1012.13 1012.67 1013.00 1013.21 1013.15 1012.93 1013.04 1013.26 1013.63 1014.14 1014.66 1015.01 1015.48 1015.88 1016.42 1016.87 1017.36 1017.86 1018.40 1019.06
1010.26 1010.17 1010.25 1009.92 1009.72 1009.40 1008.83 1008.51 1008.38 1008.01 1008.02 1008.19 1008.35 1008.31 1008.33 1008.48 1008.77 1008.75 1008.56 1008.44 1008.24 1008.20 1008.39 1008.70 1008.96 1009.14 1009.68 1010.02 1010.70 1011.13 1011.26 1011.29 1011.37 1011.64 1012.19 1012.73 1013.05 1013.37 1013.47 1013.53 1013.56 1013.55 1013.74 1014.26 1014.78 1015.39 1015.76 1016.25 1016.58 1016.88 1017.41 1017.81 1018.21 1018.64
1009.25 1009.56 1009.37 1008.99 1008.65 1008.12 1007.83 1007.63 1007.80 1007.77 1007.73 1008.12 1008.36 1008.69 1008.68 1008.82 1009.02 1009.08 1008.96 1008.85 1008.70 1008.57 1008.77 1009.33 1009.67 1009.69 1009.93 1010.53 1010.85 1011.36 1012.00 1012.19 1012.11 1012.19 1012.35 1012.85 1013.40 1013.75 1013.89 1013.99 1014.01 1013.96 1013.99 1014.20 1014.51 1015.02 1015.49 1015.92 1016.15 1016.57 1016.99 1017.28 1017.53 1017.89
1008.75 1008.71 1008.53 1008.26 1007.97 1007.56 1007.51 1007.72 1007.87 1007.96 1008.06 1008.31 1008.59 1008.64 1008.86 1009.04 1009.68 1009.69 1009.55 1009.30 1009.19 1009.25 1009.34 1009.55 1009.88 1010.36 1010.60 1010.93 1011.21 1011.50 1011.80 1012.58 1012.96 1013.26 1013.55 1013.97 1014.34 1014.55 1014.62 1014.64 1014.61 1014.53 1014.46 1014.45 1014.45 1014.80 1015.12 1015.30 1015.45 1015.75 1016.06 1016.46 1016.84 1017.23
1008.15 1007.98 1007.80 1007.57 1007.50 1007.50 1007.84 1008.10 1008.18 1008.23 1008.27 1008.37 1008.56 1008.55 1008.78 1009.21 1009.84 1010.15 1009.98 1009.94 1009.83 1009.80 1010.07 1010.28 1010.46 1010.73 1011.14 1011.53 1011.96 1012.41 1012.80 1013.31 1013.63 1013.88 1014.15 1014.42 1014.72 1014.98 1015.13 1015.19 1015.17 1015.12 1015.06 1015.01 1014.96 1014.94 1014.93 1014.93 1015.08 1015.21 1015.43 1015.78 1016.10 1016.39
Wind_Speed
14 14 14 14 13 12 12 10 11 12 13 14 14 8 7 6 6 2 3 3 2 4 10 6 5 6 3 2 3 6 8 4 4 7 5 4 3 4 5 3 5 4 4 3 4 2 3 15 9 8 2 6 4 8
16 16 15 14 13 12 11 9 14 13 13 12 12 9 8 6 6 3 2 2 1 4 10 4 12 17 14 12 3 2 4 3 2 3 3 4 3 3 5 4 9 4 4 4 0 1 4 6 5 8 5 3 4 7
18 17 15 13 12 11 10 10 14 14 13 12 13 11 8 6 6 5 3 2 1 4 7 4 6 3 4 14 10 5 3 2 1 0 2 2 3 2 4 3 5 7 8 3 3 5 9 9 10 11 6 6 8 14
18 18 16 12 10 9 8 10 13 14 13 12 14 11 8 7 7 7 2 2 2 2 5 9 3 8 3 6 12 13 2 3 3 1 2 2 2 2 3 2 3 3 9 8 2 8 12 6 12 10 11 11 15 12
19 17 15 10 8 9 9 10 13 14 13 12 13 9 7 5 6 5 5 4 5 3 4 9 13 4 6 4 8 8 5 1 1 2 3 1 1 2 1 1 3 5 5 4 3 6 6 7 14 6 13 7 10 19
17 15 10 8 9 10 10 9 12 14 13 12 13 5 1 2 2 2 3 1 4 4 3 6 5 6 5 5 5 7 5 2 2 3 2 2 0 2 1 1 3 7 6 4 5 11 8 10 10 4 8 9 8 13
12 10 9 10 10 9 9 11 12 12 12 10 6 2 3 4 2 3 4 1 5 3 3 6 6 6 4 1 2 3 2 2 3 2 1 2 2 3 1 1 4 7 5 8 9 7 2 7 6 4 10 12 11 11
9 11 10 10 9 9 8 11 14 12 11 6 3 3 5 6 6 5 4 14 6 1 1 3 6 6 4 3 2 1 2 1 2 2 1 2 2 1 1 4 6 8 1 6 9 8 5 5 10 5 10 13 12 12
11 12 11 10 8 8 10 11 12 11 6 2 4 6 1 2 3 2 5 5 5 1 3 2 2 5 5 2 1 2 1 1 1 2 1 3 2 1 1 3 5 7 5 5 6 9 11 13 12 12 8 11 12 10
12 12 9 10 8 11 10 9 10 8 2 3 2 1 2 4 6 10 2 2 3 3 3 4 1 5 2 3 4 1 2 1 0 2 2 2 2 2 2 3 3 5 7 6 2 6 9 11 12 13 12 9 9 11
12 11 11 10 10 11 10 9 7 4 4 1 2 3 3 7 3 3 2 3 3 3 4 5 6 3 1 2 3 2 2 0 1 3 2 1 3 2 5 7 5 6 10 9 10 11 11 12 11 11 12 13 12 12
11 11 11 10 11 11 10 7 8 3 2 3 2 2 3 0 2 3 3 2 5 5 3 4 5 6 3 3 1 2 1 1 3 3 2 2 3 6 8 8 7 7 10 11 11 12 12 14 12 12 11 12 12 12
12 12 11 10 10 10 9 10 9 3 2 2 1 2 2 1 2 6 6 4 3 4 4 3 3 2 2 1 2 0 1 3 2 1 3 4 4 7 8 8 8 9 10 11 12 12 13 12 12 13 11 11 11 12
12 11 10 9 9 9 11 10 8 4 2 3 4 4 6 5 5 6 5 4 4 2 2 2 2 3 1 1 2 1 0 2 1 2 5 4 10 9 9 9 9 9 8 10 10 10 12 11 10 10 9 7 8 9
11 11 10 10 11 12 11 9 8 2 2 4 3 6 7 5 3 4 4 2 3 1 2 1 2 1 1 2 2 2 1 4 5 5 3 4 9 10 10 9 7 6 5 5 6 7 9 8 7 8 7 7 7 7
10 9 7 11 14 14 13 8 3 2 2 3 5 3 3 1 3 2 2 3 2 3 1 1 2 2 4 2 2 5 3 5 4 3 2 7 9 8 9 9 8 6 5 5 6 6 7 7 6 7 7 7 7 7
9 4 8 13 16 14 12 3 2 5 4 4 5 3 2 3 4 4 3 3 1 3 2 3 2 4 3 2 3 4 5 4 3 2 3 7 11 9 7 6 6 7 7 7 7 6 7 7 7 6 6 4 6 6
4 4 12 16 11 8 2 2 3 4 7 5 4 3 3 4 3 3 4 2 3 2 4 5 4 3 5 4 4 4 2 1 1 3 4 5 7 7 8 8 6 7 7 7 7 7 7 6 5 4 6 6 6 5
3 4 16 20 7 4 5 5 3 4 5 3 4 3 3 4 4 5 3 4 3 3 4 2 3 3 5 4 4 3 3 3 4 3 3 6 8 8 8 7 7 7 8 7 7 5 4 5 4 5 5 4 4 3
10 6 20 18 8 3 5 4 3 3 4 4 3 3 4 4 3 3 3 4 4 4 3 4 6 4 4 4 4 3 3 5 6 5 3 3 4 8 9 8 5 6 6 6 5 6 5 3 2 4 5 5 5 4
7 8 17 10 1 3 1 2 4 4 3 3 2 3 4 1 3 3 4 4 3 4 4 5 5 5 5 2 2 3 5 7 7 7 9 6 4 6 5 4 7 5 4 4 5 4 5 4 4 5 5 4 3 3
4 10 3 2 2 3 2 3 2 3 3 3 3 3 3 3 3 4 3 3 4 5 5 5 4 4 3 4 3 5 5 5 6 7 9 12 6 5 5 5 6 5 5 6 5 6 4 4 5 5 5 4 4 3
8 4 3 4 5 5 3 3 3 4 3 3 1 3 3 3 4 2 3 4 5 5 5 5 4 4 5 3 5 5 8 8 6 5 7 6 5 5 5 6 5 7 5 4 3 5 5 6 6 6 4 5 6 4
5 5 5 6 5 4 2 3 3 3 2 2 3 4 3 3 2 1 4 3 4 1 3 5 4 4 3 4 3 4 4 4 5 4 4 8 6 4 5 6 6 5 5 5 6 5 5 6 8 6 6 7 7 6
5 6 5 5 5 4 5 4 4 3 4 5 3 3 4 2 1 3 4 4 2 2 3 3 3 3 4 3 2 3 3 6 7 6 4 5 4 4 3 2 3 3 4 6 6 8 7 7 7 7 8 7 8 8
4 5 6 9 5 4 5 3 6 7 4 4 5 4 1 3 3 5 4 3 3 4 4 5 5 4 1 2 5 4 5 4 5 4 4 6 7 7 7 6 4 4 7 7 8 10 10 10 10 10 9 9 9 8
6 6 4 3 2 2 3 3 2 0 3 5 3 2 3 3 4 4 2 2 3 3 4 4 5 5 5 4 2 3 4 5 4 4 4 6 4 4 5 7 8 6 7 10 10 12 13 13 12 10 9 8 8 9
3 4 5 5 3 3 3 1 1 6 5 3 1 4 4 3 3 3 3 2 2 4 4 2 2 3 4 4 4 6 5 5 8 8 7 5 3 2 2 2 2 6 7 8 9 10 12 13 12 10 9 9 8 8
4 3 4 4 3 4 5 6 4 4 2 3 2 3 3 2 2 3 3 2 2 6 5 5 3 4 6 6 5 4 6 7 8 6 5 4 3 2 3 2 3 4 4 5 5 8 13 13 11 10 11 9 8 7
4 4 4 5 5 6 4 5 4 3 2 3 1 2 2 2 3 2 2 2 3 4 4 4 4 6 5 6 5 5 4 3 2 4 6 5 4 3 3 3 3 2 5 6 7 5 7 6 4 3 4 5 6 7
3 5 3 4 4 4 5 3 1 2 2 3 1 2 2 2 1 3 3 3 2 4 6 5 3 3 6 5 4 6 3 4 5 6 6 6 5 4 4 4 3 3 2 6 8 9 9 8 7 8 8 9 10 9
4 6 4 4 3 1 2 3 3 3 3 3 3 1 1 3 2 3 4 3 3 4 2 5 6 3 4 5 4 5 9 6 6 6 8 6 5 4 4 3 3 3 3 3 3 5 9 11 10 11 12 12 10 11
3 2 4 3 2 3 2 3 1 1 1 3 2 3 1 4 4 3 3 3 1 2 3 4 5 6 8 8 8 8 8 8 9 9 9 8 7 5 4 3 3 4 4 3 2 1 2 7 10 10 11 11 12 11
Wind_Direction
252 252 261 268 274 280 285 293 313 309 306 311 319 306 288 299 314 345 267 184 175 266 278 242 217 198 268 158 237 299 341 346 347 20 8 341 322 1 308 20 338 22 353 349 330 16 57 360 353 60 180 296 143 134
253 251 254 261 268 275 278 296 304 304 306 305 308 295 279 274 287 319 278 201 120 214 259 264 249 250 237 231 139 277 239 274 323 351 351 307 335 335 314 348 335 34 8 313 107 358 358 355 319 303 250 228 111 110
263 257 255 253 260 270 276 296 300 303 305 300 301 298 275 264 264 249 242 212 274 285 288 318 255 267 203 223 195 186 260 247 349 176 197 291 339 344 341 25 287 341 15 322 306 5 344 22 353 12 55 102 100 117
262 261 255 245 252 265 276 289 294 299 301 298 299 295 268 262 258 262 224 143 132 278 286 281 312 298 226 155 188 207 159 47 97 69 85 316 328 68 322 15 4 319 310 321 332 359 334 33 1 6 50 87 97 102
262 255 250 238 245 256 268 285 293 298 299 293 293 284 260 266 283 278 248 202 185 172 286 289 313 266 283 221 209 197 172 122 40 30 52 328 331 331 320 90 4 332 337 349 336 343 305 301 318 308 90 59 106 118
260 246 229 240 249 256 263 272 290 295 294 292 298 273 282 286 4 310 317 174 193 176 282 304 283 293 317 23 111 139 147 150 130 133 193 299 18 319 331 76 284 328 337 339 310 304 292 316 337 60 90 92 107 114
248 237 238 247 248 251 264 274 285 291 288 287 277 241 272 269 128 206 202 200 175 177 265 295 301 279 295 313 77 108 117 156 126 135 109 156 354 353 335 77 314 317 336 349 360 323 270 357 315 29 96 100 104 106
246 250 247 248 247 253 260 277 286 292 296 280 268 281 290 279 269 271 253 222 201 119 279 279 278 329 359 317 6 22 135 80 26 145 75 94 345 15 9 326 335 344 317 27 30 30 23 358 31 82 105 111 113 117
251 253 253 248 247 258 265 276 279 282 283 270 300 304 33 187 216 249 75 152 160 298 278 230 271 274 346 299 288 356 79 93 306 92 1 90 329 342 27 321 5 357 1 33 47 46 37 39 32 28 102 117 109 105
248 252 245 252 245 262 263 267 270 286 232 315 46 116 258 207 210 149 229 125 165 230 232 242 201 266 55 355 304 347 20 159 233 256 90 38 275 148 121 86 51 48 36 19 41 50 57 52 43 39 47 65 88 107
247 245 247 248 255 257 270 260 258 154 92 82 211 219 261 297 132 200 230 204 176 234 218 235 193 225 264 171 263 187 223 206 354 260 117 300 280 155 125 103 87 79 76 67 70 65 58 62 68 55 56 60 68 76
243 249 251 247 255 270 263 241 158 153 176 194 228 306 292 286 178 247 215 230 205 229 214 202 217 197 252 144 117 268 250 82 253 144 77 254 240 148 137 132 121 98 87 82 77 79 65 60 59 63 58 63 70 75
243 242 243 242 256 260 255 176 179 150 80 75 264 288 73 265 191 211 205 233 230 198 211 201 240 196 334 105 235 313 292 245 115 5 245 228 158 137 128 124 105 99 92 88 85 85 91 79 68 63 51 51 59 66
233 242 248 247 249 260 172 170 181 171 121 193 164 252 198 208 229 202 197 202 242 221 206 181 241 164 201 302 189 216 279 107 306 264 242 186 168 148 142 134 135 146 144 126 117 109 105 100 92 81 76 61 65 75
225 242 251 263 255 169 162 170 173 130 190 231 176 226 216 232 257 237 231 252 240 173 113 36 4 61 278 297 218 109 172 245 210 229 237 171 156 156 150 154 161 169 169 147 129 115 111 110 104 99 94 93 92 94
216 245 232 208 160 159 156 154 179 160 237 237 231 258 241 327 278 270 248 253 197 146 111 40 21 343 253 205 167 224 166 226 251 225 199 141 147 155 155 160 176 174 164 149 130 125 119 116 111 101 88 81 89 105
207 237 178 169 152 149 152 136 189 202 228 233 248 219 214 260 231 242 215 251 112 96 185 120 180 226 308 281 248 185 202 220 236 226 160 158 155 151 145 146 150 138 138 137 124 121 112 110 110 94 85 80 88 88
235 190 166 158 135 126 117 232 234 224 233 232 235 233 198 218 220 234 234 204 130 197 145 203 150 197 223 220 261 248 228 35 22 147 145 129 126 135 147 143 135 134 127 121 123 120 124 132 128 115 124 121 101 95
199 184 166 156 157 136 159 203 231 250 241 220 246 220 219 239 228 230 208 187 196 177 138 141 183 218 236 227 233 245 194 186 164 148 120 137 142 148 142 131 127 123 131 132 140 145 143 142 139 134 136 132 124 136
235 247 171 166 166 181 181 203 183 241 255 238 232 230 214 216 221 209 205 170 159 160 166 201 213 219 198 222 203 219 174 150 134 106 105 129 140 139 148 145 143 134 117 109 108 119 120 104 114 137 144 150 151 169
191 184 167 153 145 304 257 247 200 218 245 245 240 195 252 243 232 206 212 163 166 177 211 222 225 232 227 231 184 159 144 164 171 159 164 154 171 143 134 124 131 133 131 149 151 159 160 164 158 154 152 160 165 168
131 110 95 156 200 208 256 220 255 307 246 251 282 208 257 257 233 221 147 165 210 214 196 194 211 212 215 212 186 180 140 123 107 100 91 117 139 138 152 154 143 155 163 179 172 172 173 154 148 152 154 161 181 159
116 119 116 160 204 178 231 144 210 224 225 248 318 262 239 245 230 137 227 210 232 220 197 196 208 201 188 161 124 122 149 150 144 141 146 148 142 135 137 161 161 160 176 203 152 152 163 147 151 152 149 151 177 163
82 142 179 169 190 190 192 207 215 246 250 253 229 253 258 219 162 225 253 234 238 197 178 192 148 110 65 102 141 162 151 123 112 95 129 136 142 167 168 175 178 185 175 142 157 156 152 158 153 155 159 162 172 172
150 180 185 172 163 198 205 213 197 195 234 212 217 264 265 143 248 237 234 258 216 198 190 156 144 143 142 148 117 128 158 148 151 154 181 157 126 88 110 156 190 178 141 139 161 166 166 160 166 164 173 167 168 175
199 177 193 176 169 201 206 218 197 200 189 189 236 241 157 175 218 244 235 215 197 175 174 165 149 127 130 172 140 163 180 149 125 135 176 165 169 162 177 179 188 233 198 191 163 172 168 170 168 170 181 177 171 170
181 193 202 262 158 175 253 248 118 98 221 208 229 229 162 234 245 255 286 226 185 196 163 161 155 156 160 151 119 112 135 152 151 171 147 161 180 178 161 177 200 223 168 182 178 172 168 168 166 181 180 170 181 185
225 175 182 174 189 208 267 273 213 191 206 222 143 205 199 208 260 268 241 286 224 121 107 86 62 132 133 133 118 117 87 94 96 97 93 73 59 68 127 191 238 158 156 163 165 166 167 170 172 178 175 176 181 183
203 210 144 195 204 196 215 191 216 244 222 137 192 221 158 51 329 307 316 300 167 119 113 100 60 89 84 74 65 61 131 141 129 130 128 135 131 57 350 80 107 124 133 145 151 160 168 168 173 175 177 180 183 176
220 162 184 200 181 208 226 184 213 237 168 148 158 340 26 63 342 306 322 1 128 133 126 121 144 134 131 118 110 68 26 27 44 145 150 169 178 138 103 81 70 103 136 145 155 137 96 135 104 108 133 156 165 175
171 172 216 186 216 212 216 185 166 276 80 3 48 198 157 156 345 8 17 353 105 113 119 110 81 86 123 133 135 128 101 21 53 75 87 96 97 89 77 67 54 44 79 162 161 164 167 177 179 202 196 194 190 189
172 185 189 175 231 237 97 136 169 188 181 161 217 148 156 78 35 307 349 353 91 94 85 125 132 127 95 95 73 72 91 101 81 81 80 83 79 68 59 48 41 44 58 77 134 174 189 197 191 195 203 202 194 199
178 190 210 171 139 153 99 93 55 62 252 182 206 167 146 141 169 242 318 12 24 129 115 95 86 87 89 93 104 100 91 93 96 90 86 87 85 75 60 44 37 39 48 55 57 67 150 202 210 210 203 196 189 188